| time (UTC) | temp F | wind direction | speed MPH | gust MPH | rain 1hr in | rain 24hr in | rain mn in | humidity % | barometer mb |
| 20260903014517 | 82 | 259 | 0.0 | 0.0 | 0.00 | 0.00 | 0.00 | 77 | 1012.9 |
| 20260903013017 | 83 | 259 | 0.0 | 0.0 | 0.00 | 0.00 | 0.00 | 76 | 1013.0 |
| 20260903011516 | 83 | 259 | 0.0 | 0.0 | 0.00 | 0.00 | 0.00 | 75 | 1013.0 |
| 20260903010016 | 84 | 259 | 0.0 | 0.0 | 0.00 | 0.00 | 0.00 | 73 | 1012.9 |
| 20260903004531 | 84 | 259 | 0.0 | 0.0 | 0.00 | 0.00 | 0.00 | 71 | 1012.9 |
| 20260903003014 | 85 | 259 | 0.0 | 0.0 | 0.00 | 0.00 | 0.00 | 70 | 1012.7 |
| 20260903001514 | 85 | 259 | 0.0 | 0.0 | 0.00 | 0.00 | 0.00 | 69 | 1012.6 |
| 20260903000016 | 86 | 259 | 0.0 | 0.0 | 0.00 | 0.00 | 0.00 | 69 | 1012.5 |
| 20260902234513 | 87 | 259 | 0.0 | 0.0 | 0.00 | 0.00 | 0.00 | 67 | 1012.6 |
| 20260902233013 | 88 | 251 | 0.0 | 2.0 | 0.00 | 0.00 | 0.00 | 67 | 1012.6 |
| 20260902231516 | 88 | 222 | 0.0 | 0.0 | 0.00 | 0.00 | 0.00 | 66 | 1012.6 |
| 20260902230012 | 89 | 255 | 0.0 | 0.0 | 0.00 | 0.00 | 0.00 | 65 | 1012.6 |
| 20260902224512 | 89 | 257 | 0.0 | 1.0 | 0.00 | 0.00 | 0.00 | 63 | 1012.6 |
| 20260902223011 | 90 | 282 | 0.0 | 5.0 | 0.00 | 0.00 | 0.00 | 61 | 1012.5 |
| 20260902221516 | 91 | 257 | 0.0 | 5.0 | 0.00 | 0.00 | 0.00 | 60 | 1012.4 |
| 20260902220009 | 91 | 308 | 0.0 | 7.0 | 0.00 | 0.00 | 0.00 | 59 | 1012.4 |
| 20260902214509 | 92 | 217 | 0.0 | 10.0 | 0.00 | 0.00 | 0.00 | 59 | 1012.5 |
| 20260902213021 | 92 | 253 | 0.0 | 10.0 | 0.00 | 0.00 | 0.00 | 59 | 1012.5 |
| 20260902211507 | 93 | 265 | 1.0 | 11.0 | 0.00 | 0.00 | 0.00 | 57 | 1012.6 |
| 20260902210013 | 93 | 298 | 0.0 | 8.0 | 0.00 | 0.00 | 0.00 | 58 | 1012.8 |
| 20260902204503 | 93 | 254 | 0.0 | 6.0 | 0.00 | 0.00 | 0.00 | 57 | 1012.9 |
| 20260902203003 | 93 | 198 | 1.0 | 8.0 | 0.00 | 0.00 | 0.00 | 57 | 1013.1 |
| 20260902201502 | 93 | 244 | 0.0 | 7.0 | 0.00 | 0.00 | 0.00 | 55 | 1013.2 |
| 20260902200100 | 93 | 264 | 0.0 | 6.0 | 0.00 | 0.00 | 0.00 | 58 | 1013.3 |
| 20260902194556 | 92 | 250 | 0.0 | 5.0 | 0.00 | 0.00 | 0.00 | 59 | 1013.5 |
| 20260902193057 | 92 | 273 | 0.0 | 3.0 | 0.00 | 0.00 | 0.00 | 61 | 1013.6 |
| 20260902191556 | 92 | 228 | 0.0 | 8.0 | 0.00 | 0.00 | 0.00 | 60 | 1013.7 |
| 20260902190052 | 92 | 223 | 0.0 | 6.0 | 0.00 | 0.00 | 0.00 | 60 | 1013.9 |
| 20260902184559 | 92 | 302 | 0.0 | 8.0 | 0.00 | 0.00 | 0.00 | 58 | 1014.0 |
| 20260902183056 | 92 | 226 | 0.0 | 4.0 | 0.00 | 0.00 | 0.00 | 58 | 1014.2 |
| 20260902181549 | 92 | 228 | 1.0 | 7.0 | 0.00 | 0.00 | 0.00 | 60 | 1014.4 |
| 20260902180045 | 91 | 277 | 2.0 | 6.0 | 0.00 | 0.00 | 0.00 | 60 | 1014.4 |
| 20260902174544 | 91 | 249 | 2.0 | 10.0 | 0.00 | 0.00 | 0.00 | 59 | 1014.6 |
| 20260902173042 | 91 | 262 | 0.0 | 6.0 | 0.00 | 0.00 | 0.00 | 63 | 1014.9 |
| 20260902171541 | 90 | 231 | 0.0 | 6.0 | 0.00 | 0.00 | 0.00 | 62 | 1015.0 |
| 20260902170044 | 90 | 279 | 0.0 | 2.0 | 0.00 | 0.00 | 0.00 | 63 | 1015.1 |
| 20260902164537 | 89 | 257 | 0.0 | 4.0 | 0.00 | 0.00 | 0.00 | 67 | 1015.2 |
| 20260902163036 | 89 | 249 | 0.0 | 0.0 | 0.00 | 0.00 | 0.00 | 69 | 1015.3 |
| 20260902161530 | 87 | 212 | 0.0 | 3.0 | 0.00 | 0.00 | 0.00 | 72 | 1015.3 |
| 20260902160029 | 87 | 246 | 0.0 | 4.0 | 0.00 | 0.00 | 0.00 | 72 | 1015.5 |
| 20260902154529 | 87 | 258 | 0.0 | 0.0 | 0.00 | 0.00 | 0.00 | 72 | 1015.6 |
| 20260902153026 | 86 | 302 | 0.0 | 5.0 | 0.00 | 0.00 | 0.00 | 73 | 1015.7 |
| 20260902151522 | 85 | 190 | 0.0 | 4.0 | 0.00 | 0.00 | 0.00 | 75 | 1015.7 |
| 20260902150021 | 85 | 251 | 0.0 | 1.0 | 0.00 | 0.00 | 0.00 | 75 | 1015.6 |
| 20260902144521 | 85 | 261 | 0.0 | 5.0 | 0.00 | 0.00 | 0.00 | 75 | 1015.7 |
| 20260902143015 | 84 | 263 | 0.0 | 5.0 | 0.00 | 0.00 | 0.00 | 78 | 1015.5 |
| 20260902141512 | 83 | 264 | 0.0 | 3.0 | 0.00 | 0.00 | 0.00 | 80 | 1015.4 |
| 20260902140008 | 82 | 223 | 0.0 | 1.0 | 0.00 | 0.00 | 0.00 | 82 | 1015.4 |
| 20260902134506 | 81 | 256 | 0.0 | 3.0 | 0.00 | 0.00 | 0.00 | 84 | 1015.3 |
| 20260902133002 | 79 | 275 | 0.0 | 4.0 | 0.00 | 0.00 | 0.00 | 85 | 1015.2 |
| 20260902131604 | 78 | 266 | 0.0 | 3.0 | 0.00 | 0.00 | 0.00 | 88 | 1015.3 |
| 20260902130056 | 77 | 120 | 0.0 | 0.0 | 0.00 | 0.00 | 0.00 | 91 | 1015.3 |
| 20260902124554 | 76 | 258 | 0.0 | 0.0 | 0.00 | 0.00 | 0.00 | 92 | 1015.2 |
| 20260902123106 | 75 | 257 | 0.0 | 0.0 | 0.00 | 0.00 | 0.00 | 92 | 1015.2 |
| 20260902121558 | 75 | 255 | 0.0 | 0.0 | 0.00 | 0.00 | 0.00 | 93 | 1015.2 |
| 20260902120104 | 75 | 261 | 0.0 | 1.0 | 0.00 | 0.00 | 0.00 | 93 | 1015.0 |
| 20260902114549 | 74 | 252 | 0.0 | 0.0 | 0.00 | 0.00 | 0.00 | 93 | 1014.9 |
| 20260902113047 | 74 | 261 | 0.0 | 0.0 | 0.00 | 0.00 | 0.00 | 93 | 1014.7 |
| 20260902111555 | 74 | 261 | 0.0 | 0.0 | 0.00 | 0.00 | 0.00 | 93 | 1014.6 |
| 20260902110047 | 74 | 262 | 0.0 | 0.0 | 0.00 | 0.00 | 0.00 | 93 | 1014.4 |
| 20260902104547 | 74 | 262 | 0.0 | 0.0 | 0.00 | 0.00 | 0.00 | 93 | 1014.4 |
| 20260902103047 | 74 | 258 | 0.0 | 0.0 | 0.00 | 0.00 | 0.00 | 93 | 1014.5 |
| 20260902101546 | 74 | 258 | 0.0 | 0.0 | 0.00 | 0.00 | 0.00 | 93 | 1014.4 |
| 20260902100056 | 74 | 258 | 0.0 | 0.0 | 0.00 | 0.00 | 0.00 | 93 | 1014.3 |
| 20260902094545 | 74 | 259 | 0.0 | 0.0 | 0.00 | 0.00 | 0.00 | 93 | 1014.4 |
| 20260902093044 | 74 | 259 | 0.0 | 0.0 | 0.00 | 0.00 | 0.00 | 93 | 1014.5 |
| 20260902091550 | 75 | 259 | 0.0 | 0.0 | 0.00 | 0.00 | 0.00 | 93 | 1014.6 |
| 20260902090044 | 74 | 259 | 0.0 | 0.0 | 0.00 | 0.00 | 0.00 | 93 | 1014.7 |
| 20260902084543 | 74 | 258 | 0.0 | 0.0 | 0.00 | 0.00 | 0.00 | 93 | 1014.7 |
| 20260902083042 | 74 | 258 | 0.0 | 0.0 | 0.00 | 0.00 | 0.00 | 93 | 1014.7 |
| 20260902081541 | 74 | 258 | 0.0 | 0.0 | 0.00 | 0.00 | 0.00 | 92 | 1014.7 |
| 20260902080040 | 73 | 258 | 0.0 | 0.0 | 0.00 | 0.00 | 0.00 | 92 | 1014.5 |
| 20260902074542 | 74 | 259 | 0.0 | 0.0 | 0.00 | 0.00 | 0.00 | 91 | 1014.4 |
| 20260902073038 | 74 | 259 | 0.0 | 0.0 | 0.00 | 0.00 | 0.00 | 91 | 1014.5 |
| 20260902071538 | 74 | 259 | 0.0 | 0.0 | 0.00 | 0.00 | 0.00 | 91 | 1014.6 |
| 20260902070038 | 74 | 259 | 0.0 | 0.0 | 0.00 | 0.00 | 0.00 | 91 | 1014.7 |
| 20260902064537 | 74 | 259 | 0.0 | 0.0 | 0.00 | 0.00 | 0.00 | 90 | 1014.7 |
| 20260902063050 | 74 | 259 | 0.0 | 0.0 | 0.00 | 0.00 | 0.00 | 90 | 1014.9 |
| 20260902061534 | 74 | 259 | 0.0 | 0.0 | 0.00 | 0.00 | 0.00 | 89 | 1014.9 |
| 20260902060033 | 74 | 259 | 0.0 | 0.0 | 0.00 | 0.00 | 0.00 | 90 | 1015.1 |
| 20260902054538 | 74 | 259 | 0.0 | 0.0 | 0.00 | 0.00 | 0.00 | 89 | 1014.9 |
| 20260902053030 | 75 | 258 | 0.0 | 0.0 | 0.00 | 0.00 | 0.00 | 88 | 1014.8 |
| 20260902051529 | 75 | 258 | 0.0 | 0.0 | 0.00 | 0.00 | 0.00 | 88 | 1014.8 |
| 20260902050052 | 75 | 259 | 0.0 | 0.0 | 0.00 | 0.00 | 0.00 | 87 | 1014.8 |
| 20260902044525 | 76 | 259 | 0.0 | 0.0 | 0.00 | 0.00 | 0.00 | 87 | 1014.7 |
| 20260902043030 | 76 | 259 | 0.0 | 0.0 | 0.00 | 0.00 | 0.00 | 86 | 1014.6 |
| 20260902041520 | 76 | 258 | 0.0 | 0.0 | 0.00 | 0.00 | 0.00 | 86 | 1014.4 |
| 20260902040021 | 76 | 259 | 0.0 | 0.0 | 0.00 | 0.00 | 0.00 | 86 | 1014.2 |
| 20260902034522 | 77 | 259 | 0.0 | 0.0 | 0.00 | 0.00 | 0.00 | 86 | 1014.3 |
| 20260902033018 | 77 | 259 | 0.0 | 0.0 | 0.00 | 0.00 | 0.00 | 86 | 1014.5 |
| 20260902031519 | 77 | 258 | 0.0 | 0.0 | 0.00 | 0.00 | 0.00 | 86 | 1014.5 |
| 20260902030018 | 77 | 209 | 0.0 | 1.0 | 0.00 | 0.00 | 0.00 | 86 | 1014.5 |
| 20260902024518 | 77 | 242 | 0.0 | 0.0 | 0.00 | 0.00 | 0.00 | 84 | 1014.4 |
| 20260902023017 | 77 | 242 | 0.0 | 0.0 | 0.00 | 0.00 | 0.00 | 82 | 1014.4 |
| 20260902021516 | 77 | 241 | 0.0 | 0.0 | 0.00 | 0.00 | 0.00 | 80 | 1014.3 |
| 20260902020016 | 78 | 241 | 0.0 | 0.0 | 0.00 | 0.00 | 0.00 | 79 | 1014.0 |